Location: Newark
(43.6486°N, 79.3853°W)
Time: 13:53:46
(UTC+00:00)

STARLINK-1306 - Pass Details

Date: 08 April 2020
Orbit: 558 x 560 km, 53.0° (Epoch: 26 May)

Event Time Altitude Azimuth Distance (km) Brightness Sun altitude
Exits shadow 07:50:25 22° 349° (N) 1,243 5.7 -28.6°
Maximum altitude 07:50:50 22° 358° (N) 1,231 5.8 -28.5°
Drops below altitude 10° 07:54:08 10° 51° (NE) 1,834 7.2 -28.1°
Sets 07:56:46 0° 66° (ENE) 2,728 8.2 -27.7°
